Time,TemperatureF,DewpointF,PressureIn,WindDirection,WindDirectionDegrees,WindSpeedMPH,WindSpeedGustMPH,Humidity,HourlyPrecipIn,Conditions,Clouds,dailyrainin,SoftwareType,DateUTC
2013-09-15 00:00:00,82.7,52.3,29.56,SSW,207,5.0,5.0,35,0.00,,,0.00,Wunderground v.1.15,2013-09-15 07:00:00,
2013-09-15 00:10:00,81.6,52.1,29.56,SSW,200,4.0,19.0,36,0.00,,,0.00,Wunderground v.1.15,2013-09-15 07:10:00,
2013-09-15 00:20:00,82.0,51.6,29.56,SSW,206,6.0,19.0,35,0.00,,,0.00,Wunderground v.1.15,2013-09-15 07:20:00,
2013-09-15 00:30:00,81.2,51.7,29.56,South,186,5.0,19.0,36,0.00,,,0.00,Wunderground v.1.15,2013-09-15 07:30:00,
2013-09-15 00:40:00,81.0,52.3,29.56,South,187,2.0,2.0,37,0.00,,,0.00,Wunderground v.1.15,2013-09-15 07:40:00,
2013-09-15 00:50:00,79.9,52.0,29.56,South,187,1.0,19.0,38,0.00,,,0.00,Wunderground v.1.15,2013-09-15 07:50:00,
2013-09-15 01:00:00,78.7,52.3,29.56,South,186,2.0,19.0,40,0.00,,,0.00,Wunderground v.1.15,2013-09-15 08:00:00,
2013-09-15 01:10:00,79.4,52.3,29.56,South,184,5.0,5.0,39,0.00,,,0.00,Wunderground v.1.15,2013-09-15 08:10:00,
2013-09-15 01:20:00,80.0,52.1,29.56,South,180,6.0,6.0,38,0.00,,,0.00,Wunderground v.1.15,2013-09-15 08:20:00,
2013-09-15 01:30:00,78.9,51.8,29.56,South,180,5.0,19.0,39,0.00,,,0.00,Wunderground v.1.15,2013-09-15 08:30:00,
2013-09-15 01:40:00,78.6,52.3,29.57,South,180,5.0,5.0,40,0.00,,,0.00,Wunderground v.1.15,2013-09-15 08:40:00,
2013-09-15 01:50:00,78.2,51.9,29.57,South,180,5.0,19.0,40,0.00,,,0.00,Wunderground v.1.15,2013-09-15 08:50:00,
2013-09-15 02:00:00,77.9,51.6,29.57,South,180,4.0,19.0,40,0.00,,,0.00,Wunderground v.1.15,2013-09-15 09:00:00,
2013-09-15 02:10:00,77.8,51.5,29.56,SSE,164,6.0,6.0,40,0.00,,,0.00,Wunderground v.1.15,2013-09-15 09:10:00,
2013-09-15 02:20:00,78.0,51.7,29.57,SSE,166,6.0,19.0,40,0.00,,,0.00,Wunderground v.1.15,2013-09-15 09:20:00,
2013-09-15 02:30:00,78.0,51.7,29.57,SSE,165,6.0,6.0,40,0.00,,,0.00,Wunderground v.1.15,2013-09-15 09:30:00,
2013-09-15 02:40:00,78.0,51.7,29.57,SSE,154,6.0,19.0,40,0.00,,,0.00,Wunderground v.1.15,2013-09-15 09:40:00,
2013-09-15 02:50:00,77.7,51.5,29.57,South,171,5.0,5.0,40,0.00,,,0.00,Wunderground v.1.15,2013-09-15 09:50:00,
2013-09-15 03:00:00,78.0,51.7,29.57,SW,233,2.0,2.0,40,0.00,,,0.00,Wunderground v.1.15,2013-09-15 10:00:00,
2013-09-15 03:10:00,77.8,51.5,29.57,SW,233,0.0,19.0,40,0.00,,,0.00,Wunderground v.1.15,2013-09-15 10:10:00,
2013-09-15 03:20:00,77.6,51.4,29.57,SW,233,0.0,19.0,40,0.00,,,0.00,Wunderground v.1.15,2013-09-15 10:20:00,
2013-09-15 03:30:00,77.9,51.6,29.58,SW,232,3.0,19.0,40,0.00,,,0.00,Wunderground v.1.15,2013-09-15 10:30:00,
2013-09-15 03:40:00,77.8,51.5,29.58,SW,232,3.0,19.0,40,0.00,,,0.00,Wunderground v.1.15,2013-09-15 10:40:00,
2013-09-15 03:50:00,76.9,51.4,29.58,SW,232,3.0,3.0,41,0.00,,,0.00,Wunderground v.1.15,2013-09-15 10:50:00,
2013-09-15 04:00:00,76.6,51.8,29.58,SW,232,5.0,5.0,42,0.00,,,0.00,Wunderground v.1.15,2013-09-15 11:00:00,
2013-09-15 04:10:00,75.6,51.5,29.58,SW,232,4.0,4.0,43,0.00,,,0.00,Wunderground v.1.15,2013-09-15 11:10:00,
2013-09-15 04:20:00,75.2,51.2,29.59,SW,232,3.0,3.0,43,0.00,,,0.00,Wunderground v.1.15,2013-09-15 11:20:00,
2013-09-15 04:30:00,74.1,50.8,29.59,SW,232,1.0,19.0,44,0.00,,,0.00,Wunderground v.1.15,2013-09-15 11:30:00,
2013-09-15 04:50:00,72.4,49.9,29.59,SW,232,6.0,6.0,45,0.00,,,0.00,Wunderground v.1.15,2013-09-15 11:50:00,
2013-09-15 05:00:00,71.3,50.0,29.59,SW,232,3.0,3.0,47,0.00,,,0.00,Wunderground v.1.15,2013-09-15 12:00:00,
2013-09-15 05:10:00,71.5,49.6,29.59,SW,232,2.0,19.0,46,0.00,,,0.00,Wunderground v.1.15,2013-09-15 12:10:00,
2013-09-15 05:20:00,71.9,49.4,29.60,SW,232,1.0,1.0,45,0.00,,,0.00,Wunderground v.1.15,2013-09-15 12:20:00,
2013-09-15 05:30:00,71.8,49.9,29.60,SW,232,0.0,19.0,46,0.00,,,0.00,Wunderground v.1.15,2013-09-15 12:30:00,
2013-09-15 05:40:00,72.1,50.2,29.60,SW,232,1.0,19.0,46,0.00,,,0.00,Wunderground v.1.15,2013-09-15 12:40:00,
2013-09-15 05:50:00,72.6,50.0,29.60,SW,232,0.0,19.0,45,0.00,,,0.00,Wunderground v.1.15,2013-09-15 12:50:00,
2013-09-15 06:00:00,72.4,49.9,29.61,SW,232,0.0,19.0,45,0.00,,,0.00,Wunderground v.1.15,2013-09-15 13:00:00,
2013-09-15 06:10:00,72.2,49.7,29.61,SW,232,1.0,1.0,45,0.00,,,0.00,Wunderground v.1.15,2013-09-15 13:10:00,
2013-09-15 06:20:00,72.0,50.1,29.61,SW,232,0.0,19.0,46,0.00,,,0.00,Wunderground v.1.15,2013-09-15 13:20:00,
2013-09-15 06:30:00,71.7,49.8,29.61,SW,232,0.0,19.0,46,0.00,,,0.00,Wunderground v.1.15,2013-09-15 13:30:00,
2013-09-15 06:40:00,71.5,50.2,29.62,SW,232,0.0,19.0,47,0.00,,,0.00,Wunderground v.1.15,2013-09-15 13:40:00,
2013-09-15 06:50:00,70.4,49.8,29.63,SW,232,0.0,19.0,48,0.00,,,0.00,Wunderground v.1.15,2013-09-15 13:50:00,
2013-09-15 07:00:00,70.1,50.0,29.63,SW,232,0.0,19.0,49,0.00,,,0.00,Wunderground v.1.15,2013-09-15 14:00:00,
2013-09-15 07:10:00,70.0,50.5,29.63,SW,232,2.0,19.0,50,0.00,,,0.00,Wunderground v.1.15,2013-09-15 14:10:00,
2013-09-15 07:20:00,70.3,50.2,29.63,SW,232,2.0,19.0,49,0.00,,,0.00,Wunderground v.1.15,2013-09-15 14:20:00,
2013-09-15 07:30:00,71.1,50.4,29.64,SW,232,2.0,2.0,48,0.00,,,0.00,Wunderground v.1.15,2013-09-15 14:30:00,
2013-09-15 07:40:00,71.9,50.6,29.64,SW,232,0.0,19.0,47,0.00,,,0.00,Wunderground v.1.15,2013-09-15 14:40:00,
2013-09-15 07:50:00,72.2,50.3,29.64,SW,232,2.0,19.0,46,0.00,,,0.00,Wunderground v.1.15,2013-09-15 14:50:00,
2013-09-15 08:00:00,72.5,49.9,29.64,SW,232,2.0,19.0,45,0.00,,,0.00,Wunderground v.1.15,2013-09-15 15:00:00,
2013-09-15 08:10:00,72.8,50.2,29.64,West,263,4.0,19.0,45,0.00,,,0.00,Wunderground v.1.15,2013-09-15 15:10:00,
2013-09-15 08:20:00,72.7,50.1,29.64,West,261,4.0,19.0,45,0.00,,,0.00,Wunderground v.1.15,2013-09-15 15:20:00,
2013-09-15 08:30:00,73.0,50.4,29.64,West,263,4.0,4.0,45,0.00,,,0.00,Wunderground v.1.15,2013-09-15 15:30:00,
2013-09-15 08:40:00,73.4,50.2,29.65,West,264,3.0,19.0,44,0.00,,,0.00,Wunderground v.1.15,2013-09-15 15:40:00,
2013-09-15 08:50:00,73.8,50.5,29.65,West,263,2.0,19.0,44,0.00,,,0.00,Wunderground v.1.15,2013-09-15 15:50:00,
2013-09-15 09:00:00,74.5,50.5,29.65,WSW,246,3.0,19.0,43,0.00,,,0.00,Wunderground v.1.15,2013-09-15 16:00:00,
2013-09-15 09:10:00,75.1,50.4,29.65,SW,229,3.0,3.0,42,0.00,,,0.00,Wunderground v.1.15,2013-09-15 16:10:00,
2013-09-15 09:20:00,76.7,50.6,29.65,SW,223,2.0,19.0,40,0.00,,,0.00,Wunderground v.1.15,2013-09-15 16:20:00,
2013-09-15 09:30:00,77.1,50.9,29.66,SW,223,2.0,2.0,40,0.00,,,0.00,Wunderground v.1.15,2013-09-15 16:30:00,
2013-09-15 09:40:00,78.1,51.1,29.65,SW,223,2.0,19.0,39,0.00,,,0.00,Wunderground v.1.15,2013-09-15 16:40:00,
2013-09-15 09:50:00,79.3,51.5,29.65,SW,223,1.0,19.0,38,0.00,,,0.00,Wunderground v.1.15,2013-09-15 16:50:00,
2013-09-15 10:00:00,80.3,51.7,29.65,SW,223,1.0,1.0,37,0.00,,,0.00,Wunderground v.1.15,2013-09-15 17:00:00,
2013-09-15 10:10:00,81.0,52.3,29.65,SW,224,1.0,1.0,37,0.00,,,0.00,Wunderground v.1.15,2013-09-15 17:10:00,
2013-09-15 10:20:00,83.5,52.2,29.65,SW,225,0.0,19.0,34,0.00,,,0.00,Wunderground v.1.15,2013-09-15 17:20:00,
2013-09-15 10:30:00,84.0,52.6,29.65,SW,225,1.0,1.0,34,0.00,,,0.00,Wunderground v.1.15,2013-09-15 17:30:00,
2013-09-15 10:40:00,84.5,53.0,29.64,SW,224,1.0,1.0,34,0.00,,,0.00,Wunderground v.1.15,2013-09-15 17:40:00,
2013-09-15 10:50:00,85.9,52.6,29.64,SW,225,1.0,1.0,32,0.00,,,0.00,Wunderground v.1.15,2013-09-15 17:50:00,
2013-09-15 11:00:00,86.6,52.4,29.65,West,278,1.0,19.0,31,0.00,,,0.00,Wunderground v.1.15,2013-09-15 18:00:00,
2013-09-15 11:10:00,87.0,52.7,29.64,West,278,1.0,1.0,31,0.00,,,0.00,Wunderground v.1.15,2013-09-15 18:10:00,
2013-09-15 11:20:00,89.0,53.5,29.64,West,278,0.0,19.0,30,0.00,,,0.00,Wunderground v.1.15,2013-09-15 18:20:00,
2013-09-15 11:30:00,89.6,53.1,29.63,West,281,2.0,19.0,29,0.00,,,0.00,Wunderground v.1.15,2013-09-15 18:30:00,
2013-09-15 11:40:00,90.1,53.6,29.63,West,261,2.0,19.0,29,0.00,,,0.00,Wunderground v.1.15,2013-09-15 18:40:00,
2013-09-15 11:50:00,89.8,53.3,29.63,WSW,252,4.0,4.0,29,0.00,,,0.00,Wunderground v.1.15,2013-09-15 18:50:00,
2013-09-15 12:00:00,91.4,53.7,29.62,WNW,290,2.0,19.0,28,0.00,,,0.00,Wunderground v.1.15,2013-09-15 19:00:00,
2013-09-15 12:10:00,91.8,52.0,29.62,NW,307,4.0,4.0,26,0.00,,,0.00,Wunderground v.1.15,2013-09-15 19:10:00,
2013-09-15 12:20:00,92.3,52.5,29.62,WNW,292,4.0,4.0,26,0.00,,,0.00,Wunderground v.1.15,2013-09-15 19:20:00,
2013-09-15 12:30:00,92.9,51.9,29.62,NW,307,6.0,19.0,25,0.00,,,0.00,Wunderground v.1.15,2013-09-15 19:30:00,
2013-09-15 12:40:00,93.8,51.5,29.62,West,266,5.0,5.0,24,0.00,,,0.00,Wunderground v.1.15,2013-09-15 19:40:00,
2013-09-15 12:50:00,94.4,50.9,29.61,SW,225,4.0,19.0,23,0.00,,,0.00,Wunderground v.1.15,2013-09-15 19:50:00,
2013-09-15 13:00:00,95.5,50.6,29.61,West,273,5.0,19.0,22,0.00,,,0.00,Wunderground v.1.15,2013-09-15 20:00:00,
2013-09-15 13:10:00,95.8,48.3,29.60,West,276,5.0,19.0,20,0.00,,,0.00,Wunderground v.1.15,2013-09-15 20:10:00,
2013-09-15 13:20:00,96.4,48.8,29.60,WNW,299,6.0,19.0,20,0.00,,,0.00,Wunderground v.1.15,2013-09-15 20:20:00,
2013-09-15 13:30:00,96.7,47.7,29.60,NW,320,6.0,6.0,19,0.00,,,0.00,Wunderground v.1.15,2013-09-15 20:30:00,
2013-09-15 13:40:00,97.3,48.2,29.59,South,177,5.0,5.0,19,0.00,,,0.00,Wunderground v.1.15,2013-09-15 20:40:00,
2013-09-15 13:50:00,98.5,44.6,29.59,South,180,6.0,19.0,16,0.00,,,0.00,Wunderground v.1.15,2013-09-15 20:50:00,
2013-09-15 14:00:00,98.4,44.5,29.58,SW,225,16.0,16.0,16,0.00,,,0.00,Wunderground v.1.15,2013-09-15 21:00:00,
2013-09-15 14:10:00,98.1,44.2,29.58,SW,223,15.0,15.0,16,0.00,,,0.00,Wunderground v.1.15,2013-09-15 21:10:00,
2013-09-15 14:20:00,98.4,44.5,29.58,SSW,197,11.0,19.0,16,0.00,,,0.00,Wunderground v.1.15,2013-09-15 21:20:00,
2013-09-15 14:30:00,99.1,45.0,29.57,SW,233,14.0,14.0,16,0.00,,,0.00,Wunderground v.1.15,2013-09-15 21:30:00,
2013-09-15 14:40:00,99.6,45.4,29.58,SSW,211,14.0,19.0,16,0.00,,,0.00,Wunderground v.1.15,2013-09-15 21:40:00,
2013-09-15 14:50:00,99.0,45.0,29.57,SSE,157,12.0,12.0,16,0.00,,,0.00,Wunderground v.1.15,2013-09-15 21:50:00,
2013-09-15 15:00:00,98.9,44.9,29.56,SSW,201,15.0,15.0,16,0.00,,,0.00,Wunderground v.1.15,2013-09-15 22:00:00,
2013-09-15 15:10:00,98.5,44.6,29.56,SSW,205,17.0,17.0,16,0.00,,,0.00,Wunderground v.1.15,2013-09-15 22:10:00,
2013-09-15 15:20:00,99.4,43.6,29.56,South,169,15.0,15.0,15,0.00,,,0.00,Wunderground v.1.15,2013-09-15 22:20:00,
2013-09-15 15:30:00,99.6,43.7,29.55,SW,226,13.0,19.0,15,0.00,,,0.00,Wunderground v.1.15,2013-09-15 22:30:00,
2013-09-15 15:40:00,99.1,43.3,29.55,South,186,12.0,12.0,15,0.00,,,0.00,Wunderground v.1.15,2013-09-15 22:40:00,
2013-09-15 15:50:00,100.1,44.1,29.54,South,172,12.0,12.0,15,0.00,,,0.00,Wunderground v.1.15,2013-09-15 22:50:00,
2013-09-15 16:00:00,99.7,43.8,29.54,SSE,161,14.0,14.0,15,0.00,,,0.00,Wunderground v.1.15,2013-09-15 23:00:00,
2013-09-15 16:10:00,99.5,43.7,29.54,WSW,258,11.0,19.0,15,0.00,,,0.00,Wunderground v.1.15,2013-09-15 23:10:00,
2013-09-15 16:20:00,99.6,43.7,29.54,SSW,200,12.0,19.0,15,0.00,,,0.00,Wunderground v.1.15,2013-09-15 23:20:00,
2013-09-15 16:30:00,99.2,43.4,29.55,SSW,205,14.0,14.0,15,0.00,,,0.00,Wunderground v.1.15,2013-09-15 23:30:00,
2013-09-15 16:40:00,99.6,43.7,29.54,SSE,155,9.0,9.0,15,0.00,,,0.00,Wunderground v.1.15,2013-09-15 23:40:00,
2013-09-15 16:50:00,99.5,43.7,29.54,SSW,209,12.0,19.0,15,0.00,,,0.00,Wunderground v.1.15,2013-09-15 23:50:00,
2013-09-15 17:00:00,99.2,43.4,29.54,SSW,200,14.0,14.0,15,0.00,,,0.00,Wunderground v.1.15,2013-09-16 00:00:00,
2013-09-15 17:10:00,99.4,43.6,29.54,SSW,202,12.0,19.0,15,0.00,,,0.00,Wunderground v.1.15,2013-09-16 00:10:00,
2013-09-15 17:20:00,99.2,43.4,29.54,SSW,211,13.0,13.0,15,0.00,,,0.00,Wunderground v.1.15,2013-09-16 00:20:00,
2013-09-15 17:30:00,99.2,43.4,29.54,SW,226,12.0,19.0,15,0.00,,,0.00,Wunderground v.1.15,2013-09-16 00:30:00,
2013-09-15 17:40:00,99.0,43.3,29.53,WSW,256,13.0,13.0,15,0.00,,,0.00,Wunderground v.1.15,2013-09-16 00:40:00,
2013-09-15 17:50:00,98.9,43.2,29.54,SW,215,11.0,19.0,15,0.00,,,0.00,Wunderground v.1.15,2013-09-16 00:50:00,
2013-09-15 18:00:00,98.7,43.0,29.54,SSW,205,12.0,12.0,15,0.00,,,0.00,Wunderground v.1.15,2013-09-16 01:00:00,
2013-09-15 18:10:00,98.1,44.2,29.54,SW,219,11.0,11.0,16,0.00,,,0.00,Wunderground v.1.15,2013-09-16 01:10:00,
2013-09-15 18:20:00,97.8,44.0,29.54,SW,227,11.0,19.0,16,0.00,,,0.00,Wunderground v.1.15,2013-09-16 01:20:00,
2013-09-15 18:30:00,97.4,45.3,29.54,WSW,242,11.0,19.0,17,0.00,,,0.00,Wunderground v.1.15,2013-09-16 01:30:00,
2013-09-15 18:40:00,96.6,46.1,29.54,WSW,249,12.0,12.0,18,0.00,,,0.00,Wunderground v.1.15,2013-09-16 01:40:00,
2013-09-15 18:50:00,95.5,46.7,29.54,West,268,15.0,19.0,19,0.00,,,0.00,Wunderground v.1.15,2013-09-16 01:50:00,
2013-09-15 19:00:00,94.7,46.0,29.55,West,265,13.0,13.0,19,0.00,,,0.00,Wunderground v.1.15,2013-09-16 02:00:00,
2013-09-15 19:10:00,94.1,46.9,29.55,West,267,14.0,19.0,20,0.00,,,0.00,Wunderground v.1.15,2013-09-16 02:10:00,
2013-09-15 19:20:00,93.3,46.2,29.55,West,260,12.0,12.0,20,0.00,,,0.00,Wunderground v.1.15,2013-09-16 02:20:00,
2013-09-15 19:30:00,92.6,45.7,29.56,West,261,8.0,8.0,20,0.00,,,0.00,Wunderground v.1.15,2013-09-16 02:30:00,
2013-09-15 19:40:00,91.8,46.3,29.57,WSW,248,6.0,6.0,21,0.00,,,0.00,Wunderground v.1.15,2013-09-16 02:40:00,
2013-09-15 19:50:00,90.6,46.5,29.57,SSW,207,7.0,7.0,22,0.00,,,0.00,Wunderground v.1.15,2013-09-16 02:50:00,
2013-09-15 20:00:00,89.8,47.1,29.58,South,177,9.0,19.0,23,0.00,,,0.00,Wunderground v.1.15,2013-09-16 03:00:00,
2013-09-15 20:10:00,90.3,47.5,29.58,South,171,11.0,19.0,23,0.00,,,0.00,Wunderground v.1.15,2013-09-16 03:10:00,
2013-09-15 20:20:00,90.1,48.4,29.59,South,188,11.0,19.0,24,0.00,,,0.00,Wunderground v.1.15,2013-09-16 03:20:00,
2013-09-15 20:30:00,89.3,47.8,29.59,SSW,211,11.0,11.0,24,0.00,,,0.00,Wunderground v.1.15,2013-09-16 03:30:00,
2013-09-15 20:40:00,87.4,47.3,29.60,SSW,194,10.0,19.0,25,0.00,,,0.00,Wunderground v.1.15,2013-09-16 03:40:00,
2013-09-15 20:50:00,87.1,48.1,29.60,SSW,202,10.0,19.0,26,0.00,,,0.00,Wunderground v.1.15,2013-09-16 03:50:00,
2013-09-15 21:00:00,87.1,48.1,29.60,SSW,205,11.0,19.0,26,0.00,,,0.00,Wunderground v.1.15,2013-09-16 04:00:00,
2013-09-15 21:10:00,86.7,48.7,29.60,SSW,202,11.0,19.0,27,0.00,,,0.00,Wunderground v.1.15,2013-09-16 04:10:00,
2013-09-15 21:20:00,86.3,48.4,29.61,South,188,11.0,19.0,27,0.00,,,0.00,Wunderground v.1.15,2013-09-16 04:20:00,
2013-09-15 21:30:00,85.4,48.6,29.61,South,187,11.0,19.0,28,0.00,,,0.00,Wunderground v.1.15,2013-09-16 04:30:00,
2013-09-15 21:40:00,85.4,48.6,29.61,South,191,11.0,11.0,28,0.00,,,0.00,Wunderground v.1.15,2013-09-16 04:40:00,
2013-09-15 21:50:00,84.7,48.0,29.61,South,188,9.0,19.0,28,0.00,,,0.00,Wunderground v.1.15,2013-09-16 04:50:00,
2013-09-15 22:00:00,84.7,48.0,29.61,South,188,10.0,19.0,28,0.00,,,0.00,Wunderground v.1.15,2013-09-16 05:00:00,
2013-09-15 22:10:00,84.8,48.1,29.62,SSW,200,11.0,19.0,28,0.00,,,0.00,Wunderground v.1.15,2013-09-16 05:10:00,
2013-09-15 22:20:00,84.3,48.6,29.61,SSW,203,12.0,12.0,29,0.00,,,0.00,Wunderground v.1.15,2013-09-16 05:20:00,
2013-09-15 22:30:00,83.8,48.1,29.61,South,181,12.0,12.0,29,0.00,,,0.00,Wunderground v.1.15,2013-09-16 05:30:00,
2013-09-15 22:40:00,83.6,48.9,29.62,South,188,11.0,19.0,30,0.00,,,0.00,Wunderground v.1.15,2013-09-16 05:40:00,
2013-09-15 22:50:00,83.3,48.6,29.62,SSW,209,12.0,12.0,30,0.00,,,0.00,Wunderground v.1.15,2013-09-16 05:50:00,
2013-09-15 23:00:00,82.6,48.9,29.62,SSW,202,10.0,19.0,31,0.00,,,0.00,Wunderground v.1.15,2013-09-16 06:00:00,
2013-09-15 23:10:00,82.4,49.6,29.62,SSW,194,10.0,19.0,32,0.00,,,0.00,Wunderground v.1.15,2013-09-16 06:10:00,
2013-09-15 23:20:00,82.0,49.2,29.63,SSW,196,10.0,19.0,32,0.00,,,0.00,Wunderground v.1.15,2013-09-16 06:20:00,
2013-09-15 23:30:00,81.4,48.7,29.63,South,178,8.0,19.0,32,0.00,,,0.00,Wunderground v.1.15,2013-09-16 06:30:00,
2013-09-15 23:40:00,81.6,48.9,29.64,South,184,9.0,9.0,32,0.00,,,0.00,Wunderground v.1.15,2013-09-16 06:40:00,
2013-09-15 23:50:00,81.4,48.7,29.64,South,184,7.0,7.0,32,0.00,,,0.00,Wunderground v.1.15,2013-09-16 06:50:00,